TRANSIT 10 DEB, 24705

Orbit data source: Space-Track

TRANSIT 10 DEB, 24705 is space debris in LEO originally from a launch on Wed, 22 Dec 1965 UTC launched from the Air Force Western Test Range (AFWTR). Debris objects in space refer to the collection of defunct objects orbiting the Earth. Examples of debris include non-operational satellites, rocket bodies, and fragments generated from explosions, collisions, or faulty payload assembly.

Loading next visibility...
Identifier
24705, 1965-109E
Orbit
LEO
Last TLE update
6 hours ago
Origin
Manufacturer
Unknown
Mission
Spacecraft
Bus & Motor
Unknown
Mass
Unknown
Launch date (UTC)
1965-12-22 (60 years ago)
Launch vehicle
Unknown
Launch site
Air Force Western Test Range (AFWTR)
Object type
Payload
Rocket body
Debris
Shape & HBR
Unknown
Radar Cross Section
Medium (>0.1 m² and <1 m²)

Expand to show TLE details & history

TLE from 6 hours ago
0 TRANSIT 10 DEB
1 24705U 65109E   25182.63248067  .00001795  00000-0  96576-3 0  9991
2 24705  89.0563 235.0695 0085291 112.2751   3.1469 14.10593519451387
Epoch: 2025-07-01T15:10Z
TLE epoch observation values (Epoch: 2025-07-01T15:10:46.329Z)
Latitude
64.59362°
Longitude
-94.52555°
Altitude
806.95 km
Speed
7.488 km/s
True Right ascension
03h 32m 22s
True Declination
64° 27' 40"
Sunlit
Object was in daylight at epoch
Visualization orbit readout
Latitude
-7.05889°
Longitude
87.30768°
Altitude
890.464 km
Speed
7.392 km/s
Apparent Right ascension
17h 45m 06s
Apparent Declination
-28° 02' 42"
Sunlit
Object is in full shadow
Visualization observer readout
Local Sidereal Time
09:05:09
Azimuth
89.718° E
Elevation
-47.451°
Doppler factor
1
Orbital elements
Apogee altitude
915.992 km
Perigee altitude
792.619 km
Semi-major axis
7,232.443 km
Eccentricity
0.00853
Inclination
89.0563°
RAAN
235.0695°
Arg. of periapsis
112.2751°
True anomaly
Unknown
Mean anomaly
3.1469°
Eccentric anomaly
Unknown
Mean motion
3.52871 °/min
Orbital period
102.02 mins
BSTAR
0.00096576
Loading maneuver chart data...
Loading SW <> Apogee altitude chart data...
Loading historical data...
Loading historical data...
Loading historical data...
Loading historical data...
Loading historical data...
Loading historical data...
Loading historical data...

TRANSIT 10 DEB Visibility forecast

Observer location: undefined°, undefined°

Span
Click to sort rows by Start time (UTC) header in descending order
Start Az.
Max El. time (UTC)
Max El. Az.
Max El.
End time (UTC)
End Az.
6 mins2025-07-02 02:41:54.266Z114.937° SE2025-07-02 02:44:54.266Z80.29° E17.27°2025-07-02 02:47:54.266Z42.381° NE
9 mins2025-07-02 04:22:54.266Z200.407° SSW2025-07-02 04:26:54.266Z276.326° WNW38.723°2025-07-02 04:31:54.266Z348.678° N
7 mins2025-07-02 15:04:54.266Z35.764° NE2025-07-02 15:07:54.266Z90.845° ESE28.671°2025-07-02 15:11:54.266Z145.716° SSE
7 mins2025-07-02 16:46:54.266Z322.187° NNW2025-07-02 16:49:54.266Z273.681° WNW24.082°2025-07-02 16:53:54.266Z225.101° WSW
|